Flag for Germany Weather past 2 weeks in Mülheim, North Rhine-Westphalia, Germany

45 °F

Scattered clouds.

Feels Like: 38 °F
Forecast: 43 / 53 °F
Wind: 14 mph from West

Location: Koeln / Bonn

Current Time: Nov 28, 2015 at 12:39:47 PM

Latest Report: Nov 28, 2015 at 11:50 AM

Visibility: N/A

Pressure: 29.95 "Hg

Humidity: 76%

Dew point: 37 °F

Location of MülheimLocation

Historic Weather in Mülheim — Graph


Mülheim temperature yesterday

Maximum temperature yesterday: 43 °F (at 12:50 PM)
Minimum temperature yesterday: 30 °F (at 12:20 AM)
Average temperature yesterday: 35 °F

Past Weeks' High & Low Weather Summary

High61 °F (Nov 15, 11:50 AM)100% (Nov 14, 11:20 PM)30.33 "Hg (Nov 14, 11:20 PM)
Low30 °F (Nov 26, 11:20 PM)59% (Nov 18, 9:50 AM)29.39 "Hg (Nov 21, 1:50 PM)
Average45 °F86%29.92 "Hg
* Reported Nov 13 11:20 AM — Nov 28 11:20 AM, Mülheim, Weather by CustomWeather, © 2015

Note: Actual official high and low records may vary slightly from our data, if they occured in-between our weather recording intervals... More about our weather records


Mülheim weather history for previous 24 hours

Time TempWeatherWind HumidityBarometerVisibility
11:20 AM
Sat, Nov 28
43 °FScattered clouds.16 mph81%29.95 "HgN/A
10:50 AM43 °FScattered clouds.13 mph87%29.92 "HgN/A
10:20 AM43 °FPartly sunny.17 mph87%29.92 "HgN/A
9:50 AM43 °FBroken clouds.15 mph87%29.89 "HgN/A
9:20 AM43 °FBroken clouds.15 mph93%29.89 "HgN/A
8:50 AM43 °FLight rain. Partly sunny.16 mph93%29.86 "HgN/A
8:20 AM43 °FLight rain. Partly sunny.13 mph93%29.83 "HgN/A
7:50 AM43 °FPartly cloudy.16 mph93%29.83 "HgN/A
7:20 AM43 °FPassing clouds.18 mph93%29.77 "HgN/A
6:50 AM39 °FLight rain. Passing clouds.9 mph100%29.77 "HgN/A
5:50 AM37 °FRain. Overcast.8 mph100%29.74 "HgN/A
4:50 AM36 °FDrizzle. Overcast.10 mph100%29.74 "HgN/A
4:20 AM36 °FPassing clouds.8 mph100%29.74 "HgN/A
3:50 AM36 °FPassing clouds.9 mph100%29.74 "Hg4 mi
3:20 AM36 °FPartly cloudy.10 mph93%29.74 "HgN/A
2:50 AM36 °FPassing clouds.10 mph93%29.77 "HgN/A
2:20 AM36 °FPassing clouds.10 mph93%29.77 "HgN/A
1:50 AM36 °FPassing clouds.12 mph93%29.77 "HgN/A
1:20 AM36 °FDrizzle. Overcast.10 mph93%29.80 "HgN/A
12:50 AM36 °FLight rain. Passing clouds.9 mph87%29.83 "HgN/A
11:50 PM
Fri, Nov 27
34 °FPassing clouds.7 mph93%29.86 "HgN/A
11:20 PM34 °FClear.8 mph93%29.86 "Hg10 mi
10:50 PM32 °FClear.7 mph100%29.86 "Hg10 mi
9:50 PM34 °FClear.7 mph93%29.89 "Hg10 mi
9:20 PM34 °FClear.7 mph93%29.89 "Hg10 mi
8:20 PM34 °FPassing clouds.8 mph93%29.92 "HgN/A
7:50 PM34 °FClear.8 mph93%29.92 "Hg10 mi
7:20 PM36 °FClear.7 mph87%29.95 "Hg10 mi
6:50 PM36 °FClear.8 mph93%29.95 "Hg10 mi
6:20 PM36 °FClear.7 mph93%29.95 "Hg10 mi
5:50 PM36 °FClear.7 mph93%29.95 "Hg10 mi
5:20 PM36 °FClear.8 mph93%29.95 "Hg10 mi
4:50 PM37 °FClear.8 mph87%29.95 "Hg10 mi
4:20 PM37 °FSunny.9 mph87%29.98 "Hg10 mi
3:50 PM39 °FSunny.10 mph87%29.98 "Hg10 mi
3:20 PM41 °FSunny.10 mph81%29.98 "Hg10 mi
2:50 PM43 °FSunny.9 mph76%29.98 "Hg10 mi
2:20 PM43 °FPassing clouds.12 mph76%30.01 "HgN/A
1:50 PM43 °FPassing clouds.12 mph71%30.01 "HgN/A
1:20 PM43 °FSunny.13 mph76%30.04 "Hg10 mi
12:50 PM43 °FSunny.10 mph76%30.04 "Hg10 mi
12:20 PM41 °FPassing clouds.9 mph87%30.07 "HgN/A
Weather by CustomWeather, © 2015

See weather overviewHow to use our weather pages